Location: Unspecified
(41.1637°N, 24.2901°E)
Time: 13:54:14
(UTC+02:00)

ISS - Pass Details

Date: 28 June 2022
Orbit: 414 x 420 km, 51.6° (Epoch: 05 July)

Event Time Altitude Azimuth Distance (km) Brightness Sun altitude
Exits shadow 04:08:34 - 251° (WSW) 1,594 -1.4 -7.5°
Reaches altitude 10° 04:08:49 10° 252° (WSW) 1,492 -1.5 -7.4°
Maximum altitude 04:12:05 50° 329° (NNW) 544 -3.1 -7.0°
Drops below altitude 10° 04:15:23 10° 46° (NE) 1,502 0.9 -6.5°
Sets 04:17:32 0° 52° (NE) 2,370 3.0 -6.2°
